| time (UTC) | temp F | wind direction | speed MPH | gust MPH | rain 1hr in | rain 24hr in | rain mn in | humidity % | barometer mb |
| 20260508130033 | 57 | 268 | 0.0 | 1.0 | 0.00 | 0.00 | 0.00 | 76 | 1010.4 |
| 20260508124544 | 57 | 199 | 0.0 | 1.0 | 0.00 | 0.00 | 0.00 | 75 | 1010.5 |
| 20260508123048 | 56 | 224 | 0.0 | 5.0 | 0.00 | 0.00 | 0.00 | 75 | 1009.9 |
| 20260508121540 | 56 | 141 | 0.0 | 4.0 | 0.00 | 0.00 | 0.00 | 76 | 1009.9 |
| 20260508120040 | 56 | 0 | 0.0 | 2.0 | 0.00 | 0.00 | 0.00 | 76 | 1009.9 |
| 20260508114543 | 56 | 127 | 0.0 | 2.0 | 0.00 | 0.00 | 0.00 | 74 | 1009.7 |
| 20260508113055 | 56 | 217 | 0.0 | 3.0 | 0.00 | 0.00 | 0.00 | 74 | 1009.5 |
| 20260508111540 | 56 | 109 | 0.0 | 4.0 | 0.00 | 0.00 | 0.00 | 73 | 1009.5 |
| 20260508110040 | 56 | 188 | 1.0 | 6.0 | 0.00 | 0.00 | 0.00 | 73 | 1009.4 |
| 20260508104536 | 57 | 0 | 1.0 | 8.0 | 0.00 | 0.00 | 0.00 | 72 | 1009.5 |
| 20260508103038 | 57 | 0 | 0.0 | 3.0 | 0.00 | 0.00 | 0.00 | 72 | 1009.4 |
| 20260508101544 | 57 | 0 | 0.0 | 6.0 | 0.00 | 0.00 | 0.00 | 72 | 1009.3 |
| 20260508100041 | 57 | 197 | 0.0 | 4.0 | 0.00 | 0.00 | 0.00 | 71 | 1009.4 |
| 20260508094540 | 56 | 209 | 0.0 | 3.0 | 0.00 | 0.00 | 0.00 | 72 | 1009.2 |
| 20260508093045 | 56 | 0 | 1.0 | 4.0 | 0.00 | 0.00 | 0.00 | 72 | 1009.2 |
| 20260508091547 | 56 | 139 | 0.0 | 3.0 | 0.00 | 0.00 | 0.00 | 73 | 1009.4 |
| 20260508090046 | 55 | 136 | 0.0 | 3.0 | 0.00 | 0.00 | 0.00 | 74 | 1009.3 |
| 20260508084541 | 55 | 0 | 0.0 | 2.0 | 0.00 | 0.00 | 0.00 | 75 | 1009.4 |
| 20260508083057 | 54 | 0 | 0.0 | 1.0 | 0.00 | 0.00 | 0.00 | 76 | 1009.4 |
| 20260508081536 | 55 | 0 | 0.0 | 2.0 | 0.00 | 0.00 | 0.00 | 74 | 1009.7 |
| 20260508080038 | 55 | 160 | 0.0 | 3.0 | 0.00 | 0.00 | 0.00 | 75 | 1009.8 |
| 20260508074545 | 55 | 0 | 0.0 | 3.0 | 0.00 | 0.00 | 0.00 | 75 | 1010.0 |
| 20260508073042 | 55 | 98 | 0.0 | 2.0 | 0.00 | 0.00 | 0.00 | 75 | 1010.1 |
| 20260508071540 | 55 | 0 | 0.0 | 4.0 | 0.00 | 0.00 | 0.00 | 75 | 1010.3 |
| 20260508070041 | 55 | 0 | 0.0 | 2.0 | 0.00 | 0.00 | 0.00 | 73 | 1010.4 |
| 20260508064536 | 56 | 129 | 0.0 | 3.0 | 0.00 | 0.00 | 0.00 | 72 | 1010.8 |
| 20260508063048 | 56 | 0 | 0.0 | 3.0 | 0.00 | 0.00 | 0.00 | 70 | 1010.7 |
| 20260508061544 | 57 | 0 | 0.0 | 7.0 | 0.00 | 0.00 | 0.00 | 69 | 1011.0 |
| 20260508060042 | 57 | 112 | 1.0 | 6.0 | 0.00 | 0.00 | 0.00 | 69 | 1010.9 |
| 20260508054543 | 58 | 219 | 0.0 | 3.0 | 0.00 | 0.00 | 0.00 | 69 | 1010.8 |
| 20260508053045 | 58 | 221 | 0.0 | 6.0 | 0.00 | 0.00 | 0.00 | 68 | 1010.9 |
| 20260508051540 | 58 | 129 | 0.0 | 3.0 | 0.00 | 0.00 | 0.00 | 68 | 1010.9 |
| 20260508050036 | 58 | 117 | 0.0 | 3.0 | 0.00 | 0.00 | 0.00 | 68 | 1011.0 |
| 20260508044540 | 58 | 239 | 0.0 | 6.0 | 0.00 | 0.00 | 0.00 | 68 | 1011.1 |
| 20260508043045 | 58 | 160 | 0.0 | 3.0 | 0.00 | 0.00 | 0.00 | 68 | 1011.2 |
| 20260508041540 | 58 | 0 | 0.0 | 4.0 | 0.00 | 0.00 | 0.00 | 68 | 1011.3 |
| 20260508040036 | 58 | 0 | 0.0 | 1.0 | 0.00 | 0.00 | 0.00 | 68 | 1011.2 |
| 20260508034534 | 59 | 214 | 0.0 | 3.0 | 0.00 | 0.00 | 0.00 | 67 | 1011.2 |
| 20260508033035 | 59 | 118 | 0.0 | 4.0 | 0.00 | 0.00 | 0.00 | 66 | 1011.2 |
| 20260508031541 | 60 | 0 | 0.0 | 3.0 | 0.00 | 0.00 | 0.00 | 66 | 1011.2 |
| 20260508030045 | 60 | 181 | 0.0 | 4.0 | 0.00 | 0.00 | 0.00 | 66 | 1011.1 |
| 20260508024539 | 60 | 181 | 0.0 | 3.0 | 0.00 | 0.00 | 0.00 | 65 | 1010.9 |
| 20260508023035 | 60 | 210 | 0.0 | 3.0 | 0.00 | 0.00 | 0.00 | 65 | 1010.7 |
| 20260508021547 | 61 | 0 | 0.0 | 3.0 | 0.00 | 0.00 | 0.00 | 64 | 1010.5 |
| 20260508020040 | 61 | 139 | 0.0 | 2.0 | 0.00 | 0.00 | 0.00 | 63 | 1010.4 |
| 20260508014541 | 62 | 0 | 0.0 | 1.0 | 0.00 | 0.00 | 0.00 | 62 | 1010.4 |
| 20260508013041 | 62 | 0 | 0.0 | 2.0 | 0.00 | 0.00 | 0.00 | 61 | 1010.3 |
| 20260508011537 | 63 | 0 | 0.0 | 1.0 | 0.00 | 0.00 | 0.00 | 60 | 1010.3 |
| 20260508010042 | 64 | 0 | 0.0 | 2.0 | 0.00 | 0.00 | 0.00 | 58 | 1010.2 |
| 20260508004540 | 65 | 104 | 0.0 | 1.0 | 0.00 | 0.00 | 0.00 | 55 | 1010.2 |
| 20260508003037 | 66 | 143 | 0.0 | 4.0 | 0.00 | 0.00 | 0.00 | 54 | 1010.3 |
| 20260508001541 | 67 | 183 | 0.0 | 4.0 | 0.00 | 0.00 | 0.00 | 51 | 1010.4 |
| 20260508000040 | 68 | 141 | 0.0 | 6.0 | 0.00 | 0.00 | 0.00 | 51 | 1010.6 |
| 20260507234543 | 69 | 227 | 0.0 | 5.0 | 0.00 | 0.00 | 0.00 | 51 | 1010.6 |
| 20260507233039 | 70 | 162 | 1.0 | 6.0 | 0.00 | 0.00 | 0.00 | 47 | 1010.8 |
| 20260507231535 | 70 | 117 | 0.0 | 8.0 | 0.00 | 0.00 | 0.00 | 48 | 1010.8 |
| 20260507230046 | 71 | 189 | 1.0 | 7.0 | 0.00 | 0.00 | 0.00 | 47 | 1010.9 |
| 20260507224541 | 70 | 184 | 1.0 | 7.0 | 0.00 | 0.00 | 0.00 | 48 | 1011.1 |
| 20260507223040 | 70 | 159 | 2.0 | 5.0 | 0.00 | 0.00 | 0.00 | 47 | 1011.0 |
| 20260507221536 | 71 | 125 | 2.0 | 9.0 | 0.00 | 0.00 | 0.00 | 47 | 1011.1 |
| 20260507220041 | 71 | 240 | 2.0 | 7.0 | 0.00 | 0.00 | 0.00 | 49 | 1011.2 |
| 20260507214602 | 71 | 148 | 1.0 | 10.0 | 0.00 | 0.00 | 0.00 | 49 | 1011.3 |
| 20260507213041 | 71 | 331 | 2.0 | 8.0 | 0.00 | 0.00 | 0.00 | 50 | 1011.6 |
| 20260507211536 | 70 | 306 | 2.0 | 8.0 | 0.00 | 0.00 | 0.00 | 50 | 1011.8 |
| 20260507210048 | 70 | 164 | 3.0 | 8.0 | 0.00 | 0.00 | 0.00 | 50 | 1012.2 |
| 20260507204541 | 70 | 219 | 3.0 | 8.0 | 0.00 | 0.00 | 0.00 | 50 | 1012.5 |
| 20260507203049 | 69 | 224 | 1.0 | 10.0 | 0.00 | 0.00 | 0.00 | 53 | 1012.8 |
| 20260507201545 | 69 | 166 | 2.0 | 8.0 | 0.00 | 0.00 | 0.00 | 52 | 1013.0 |
| 20260507200039 | 68 | 168 | 1.0 | 13.0 | 0.00 | 0.00 | 0.00 | 52 | 1013.2 |
| 20260507194610 | 68 | 139 | 3.0 | 12.0 | 0.00 | 0.00 | 0.00 | 54 | 1013.3 |
| 20260507193042 | 68 | 131 | 2.0 | 9.0 | 0.00 | 0.00 | 0.00 | 55 | 1013.5 |
| 20260507191544 | 67 | 134 | 3.0 | 10.0 | 0.00 | 0.00 | 0.00 | 56 | 1013.7 |
| 20260507190037 | 66 | 218 | 4.0 | 8.0 | 0.00 | 0.00 | 0.00 | 55 | 1013.9 |
| 20260507184539 | 67 | 299 | 2.0 | 9.0 | 0.00 | 0.00 | 0.00 | 56 | 1014.2 |
| 20260507183038 | 66 | 0 | 3.0 | 12.0 | 0.00 | 0.00 | 0.00 | 58 | 1014.4 |
| 20260507181540 | 66 | 142 | 2.0 | 8.0 | 0.00 | 0.00 | 0.00 | 61 | 1014.7 |
| 20260507180041 | 65 | 224 | 2.0 | 6.0 | 0.00 | 0.00 | 0.00 | 58 | 1015.0 |
| 20260507174543 | 64 | 255 | 2.0 | 10.0 | 0.00 | 0.00 | 0.00 | 58 | 1015.1 |
| 20260507173039 | 64 | 130 | 1.0 | 7.0 | 0.00 | 0.00 | 0.00 | 58 | 1015.2 |
| 20260507171540 | 64 | 122 | 3.0 | 10.0 | 0.00 | 0.00 | 0.00 | 58 | 1015.3 |
| 20260507170041 | 63 | 265 | 3.0 | 9.0 | 0.00 | 0.00 | 0.00 | 60 | 1015.7 |
| 20260507164542 | 62 | 58 | 1.0 | 7.0 | 0.00 | 0.00 | 0.00 | 62 | 1015.9 |
| 20260507163040 | 62 | 292 | 1.0 | 7.0 | 0.00 | 0.00 | 0.00 | 61 | 1016.0 |
| 20260507161539 | 63 | 169 | 1.0 | 8.0 | 0.00 | 0.00 | 0.00 | 62 | 1016.0 |
| 20260507160036 | 63 | 131 | 1.0 | 9.0 | 0.00 | 0.00 | 0.00 | 60 | 1016.0 |
| 20260507154541 | 63 | 243 | 2.0 | 8.0 | 0.00 | 0.00 | 0.00 | 58 | 1016.2 |
| 20260507153044 | 63 | 241 | 2.0 | 8.0 | 0.00 | 0.00 | 0.00 | 60 | 1016.3 |
| 20260507151540 | 62 | 304 | 1.0 | 8.0 | 0.00 | 0.00 | 0.00 | 62 | 1016.5 |
| 20260507150040 | 61 | 295 | 2.0 | 7.0 | 0.00 | 0.00 | 0.00 | 63 | 1016.6 |
| 20260507144540 | 61 | 238 | 2.0 | 8.0 | 0.00 | 0.00 | 0.00 | 63 | 1016.6 |
| 20260507143040 | 60 | 266 | 1.0 | 8.0 | 0.00 | 0.00 | 0.00 | 65 | 1016.6 |
| 20260507141543 | 58 | 29 | 2.0 | 6.0 | 0.00 | 0.00 | 0.00 | 68 | 1016.6 |
| 20260507140040 | 57 | 227 | 1.0 | 6.0 | 0.00 | 0.00 | 0.00 | 69 | 1016.8 |
| 20260507134538 | 56 | 208 | 1.0 | 6.0 | 0.00 | 0.00 | 0.00 | 72 | 1016.7 |
| 20260507133035 | 54 | 177 | 0.0 | 2.0 | 0.00 | 0.00 | 0.00 | 77 | 1016.8 |
| 20260507131601 | 51 | 146 | 0.0 | 2.0 | 0.00 | 0.00 | 0.00 | 80 | 1016.9 |